When you browse on this site, cookies collect data to enhance your experience and personalize the content and advertising you see.
Visit our Privacy Policy to learn more. By continuing to use the site, you agree to this use of cookies and data.
  • En España
  • Lista de países
  • Para 7 días
  • Temperatura del agua
  • Mapa Satelital
  • El tiempo en el mapa
  • Informadores
  • user-avatar
    Iniciar sesión

    Tiempo cada hora Afonki

    Hoy, 25 Mayo, Sábado

    Tiempo Temperatura Precipitaciones Viento Presión Humedad
    00:00 +14°C° 0 mm 3 mps 740 mmHg 97%
    01:00 +13°C° 0 mm 3 mps 740 mmHg 98%
    02:00 +13°C° 0 mm 3 mps 739 mmHg 98%
    03:00 +14°C° 0 mm 3 mps 739 mmHg 97%
    04:00 +14°C° 0 mm 3 mps 739 mmHg 96%
    05:00 +14°C° 0 mm 3 mps 739 mmHg 96%
    06:00 +14°C° 0.1 mm 3 mps 739 mmHg 95%
    07:00 +16°C° 0.1 mm 3 mps 739 mmHg 94%
    08:00 +16°C° 0.1 mm 3 mps 739 mmHg 93%
    09:00 +16°C° 0.7 mm 3 mps 738 mmHg 92%
    10:00 +17°C° 0.7 mm 3 mps 738 mmHg 91%
    11:00 +18°C° 0.7 mm 3 mps 738 mmHg 90%
    12:00 +18°C° 0.4 mm 3 mps 738 mmHg 87%
    13:00 +19°C° 0.4 mm 3 mps 738 mmHg 84%
    14:00 +20°C° 0.4 mm 3 mps 738 mmHg 82%
    15:00 +20°C° 0.1 mm 3 mps 737 mmHg 80%
    16:00 +21°C° 0.1 mm 2 mps 737 mmHg 78%
    17:00 +21°C° 0.1 mm 2 mps 737 mmHg 76%
    18:00 +19°C° 1 mm 2 mps 737 mmHg 81%
    19:00 +18°C° 1 mm 2 mps 737 mmHg 86%
    20:00 +16°C° 1 mm 2 mps 736 mmHg 91%
    21:00 +14°C° 0 mm 3 mps 737 mmHg 92%
    22:00 +14°C° 0 mm 3 mps 737 mmHg 93%
    23:00 +13°C° 0 mm 3 mps 737 mmHg 93%

    Mañana, 26 Mayo, Domingo

    Tiempo Temperatura Precipitaciones Viento Presión Humedad
    00:00 +12°C° 0 mm 3 mps 737 mmHg 94%
    01:00 +12°C° 0 mm 2 mps 737 mmHg 95%
    02:00 +12°C° 0 mm 2 mps 737 mmHg 95%
    03:00 +12°C° 0 mm 2 mps 738 mmHg 95%
    04:00 +10°C° 0 mm 2 mps 738 mmHg 95%
    05:00 +10°C° 0 mm 3 mps 738 mmHg 95%
    06:00 +12°C° 0 mm 3 mps 738 mmHg 90%
    07:00 +13°C° 0 mm 3 mps 738 mmHg 86%
    08:00 +14°C° 0 mm 3 mps 738 mmHg 81%
    09:00 +15°C° 0 mm 4 mps 738 mmHg 75%
    10:00 +17°C° 0 mm 4 mps 738 mmHg 69%
    11:00 +18°C° 0 mm 4 mps 738 mmHg 63%
    12:00 +18°C° 0 mm 4 mps 738 mmHg 61%
    13:00 +19°C° 0 mm 4 mps 738 mmHg 60%
    14:00 +19°C° 0 mm 4 mps 738 mmHg 58%
    15:00 +19°C° 0 mm 4 mps 738 mmHg 60%
    16:00 +19°C° 0 mm 4 mps 738 mmHg 61%
    17:00 +18°C° 0 mm 4 mps 738 mmHg 63%
    18:00 +17°C° 0 mm 4 mps 738 mmHg 68%
    19:00 +14°C° 0 mm 3 mps 738 mmHg 73%
    20:00 +13°C° 0 mm 3 mps 738 mmHg 78%
    21:00 +12°C° 0 mm 3 mps 738 mmHg 82%
    22:00 +11°C° 0 mm 3 mps 738 mmHg 86%
    23:00 +11°C° 0 mm 3 mps 739 mmHg 90%

    Pasado mañana, 27 Mayo, Lunes

    Tiempo Temperatura Precipitaciones Viento Presión Humedad
    00:00 +11°C° 0 mm 3 mps 739 mmHg 89%
    01:00 +11°C° 0 mm 3 mps 739 mmHg 89%
    02:00 +10°C° 0 mm 3 mps 739 mmHg 89%
    03:00 +11°C° 0 mm 3 mps 739 mmHg 89%
    04:00 +11°C° 0 mm 3 mps 739 mmHg 89%
    05:00 +11°C° 0 mm 3 mps 739 mmHg 89%
    06:00 +12°C° 0 mm 4 mps 740 mmHg 83%
    07:00 +13°C° 0 mm 5 mps 740 mmHg 78%
    08:00 +15°C° 0 mm 5 mps 740 mmHg 73%
    09:00 +15°C° 0 mm 5 mps 740 mmHg 72%
    10:00 +16°C° 0 mm 6 mps 740 mmHg 72%
    11:00 +16°C° 0 mm 6 mps 741 mmHg 71%
    12:00 +17°C° 0.1 mm 6 mps 741 mmHg 71%
    13:00 +19°C° 0.1 mm 6 mps 741 mmHg 70%
    14:00 +19°C° 0.1 mm 5 mps 741 mmHg 70%
    15:00 +20°C° 0.3 mm 5 mps 741 mmHg 72%
    16:00 +20°C° 0.3 mm 4 mps 741 mmHg 75%
    17:00 +20°C° 0.3 mm 4 mps 741 mmHg 77%
    18:00 +19°C° 0.5 mm 3 mps 741 mmHg 81%
    19:00 +18°C° 0.5 mm 3 mps 741 mmHg 85%
    20:00 +17°C° 0.5 mm 3 mps 741 mmHg 89%
    21:00 +16°C° 0 mm 3 mps 741 mmHg 90%
    22:00 +14°C° 0 mm 3 mps 741 mmHg 92%
    23:00 +14°C° 0 mm 3 mps 741 mmHg 94%

    28 Mayo, Martes

    Tiempo Temperatura Precipitaciones Viento Presión Humedad
    00:00 +13°C° 0 mm 3 mps 741 mmHg 94%
    01:00 +13°C° 0 mm 3 mps 741 mmHg 94%
    02:00 +13°C° 0 mm 3 mps 741 mmHg 95%
    03:00 +13°C° 0 mm 3 mps 741 mmHg 95%
    04:00 +14°C° 0 mm 3 mps 741 mmHg 95%
    05:00 +14°C° 0 mm 3 mps 741 mmHg 95%
    06:00 +17°C° 0 mm 3 mps 742 mmHg 91%
    07:00 +19°C° 0 mm 4 mps 742 mmHg 87%
    08:00 +20°C° 0 mm 4 mps 742 mmHg 82%
    09:00 +21°C° 0.6 mm 4 mps 742 mmHg 77%
    10:00 +23°C° 0.6 mm 5 mps 742 mmHg 72%
    11:00 +25°C° 0.6 mm 5 mps 742 mmHg 67%
    12:00 +25°C° 0.5 mm 5 mps 742 mmHg 69%
    13:00 +25°C° 0.5 mm 5 mps 742 mmHg 72%
    14:00 +25°C° 0.5 mm 5 mps 742 mmHg 74%
    15:00 +23°C° 1.3 mm 4 mps 741 mmHg 79%
    16:00 +22°C° 1.3 mm 4 mps 741 mmHg 84%
    17:00 +21°C° 1.3 mm 4 mps 741 mmHg 89%
    18:00 +20°C° 0.8 mm 4 mps 741 mmHg 89%
    19:00 +20°C° 0.8 mm 4 mps 741 mmHg 89%
    20:00 +20°C° 0.8 mm 4 mps 741 mmHg 90%
    21:00 +19°C° 0 mm 4 mps 741 mmHg 90%
    22:00 +18°C° 0 mm 4 mps 741 mmHg 90%
    23:00 +17°C° 0 mm 4 mps 741 mmHg 91%

    29 Mayo, Miércoles

    Tiempo Temperatura Precipitaciones Viento Presión Humedad
    00:00 +17°C° 0 mm 4 mps 741 mmHg 91%
    01:00 +17°C° 0 mm 4 mps 741 mmHg 92%
    02:00 +17°C° 0 mm 4 mps 741 mmHg 92%
    03:00 +17°C° 0 mm 4 mps 741 mmHg 93%
    04:00 +17°C° 0 mm 4 mps 741 mmHg 93%
    05:00 +17°C° 0 mm 4 mps 740 mmHg 94%
    06:00 +19°C° 0 mm 5 mps 740 mmHg 87%
    07:00 +20°C° 0 mm 6 mps 740 mmHg 81%
    08:00 +21°C° 0 mm 6 mps 740 mmHg 74%
    09:00 +22°C° 0 mm 6 mps 740 mmHg 72%
    10:00 +23°C° 0 mm 6 mps 740 mmHg 69%
    11:00 +24°C° 0 mm 6 mps 740 mmHg 67%
    12:00 +24°C° 0 mm 6 mps 740 mmHg 67%
    13:00 +24°C° 0 mm 6 mps 741 mmHg 68%
    14:00 +26°C° 0 mm 6 mps 741 mmHg 68%
    15:00 +24°C° 1.1 mm 6 mps 741 mmHg 73%
    16:00 +25°C° 1.1 mm 5 mps 741 mmHg 77%
    17:00 +23°C° 1.1 mm 5 mps 741 mmHg 82%
    18:00 +22°C° 2.1 mm 4 mps 741 mmHg 85%
    19:00 +20°C° 2.1 mm 3 mps 741 mmHg 88%
    20:00 +19°C° 2.1 mm 2 mps 742 mmHg 90%
    21:00 +19°C° 0.7 mm 2 mps 742 mmHg 92%
    22:00 +18°C° 0.7 mm 2 mps 742 mmHg 94%
    23:00 +17°C° 0.7 mm 2 mps 743 mmHg 96%

    30 Mayo, Jueves

    Tiempo Temperatura Precipitaciones Viento Presión Humedad
    00:00 +17°C° 1.7 mm 2 mps 743 mmHg 96%
    01:00 +16°C° 1.7 mm 3 mps 743 mmHg 96%
    02:00 +14°C° 1.7 mm 4 mps 744 mmHg 96%
    03:00 +14°C° 0.1 mm 4 mps 744 mmHg 96%
    04:00 +13°C° 0.1 mm 4 mps 745 mmHg 96%
    05:00 +13°C° 0.1 mm 4 mps 746 mmHg 96%
    06:00 +13°C° 0 mm 4 mps 746 mmHg 90%
    07:00 +14°C° 0 mm 4 mps 747 mmHg 84%
    08:00 +14°C° 0 mm 4 mps 747 mmHg 79%
    09:00 +15°C° 0 mm 4 mps 747 mmHg 71%
    10:00 +17°C° 0 mm 4 mps 748 mmHg 62%
    11:00 +18°C° 0 mm 4 mps 748 mmHg 54%
    12:00 +19°C° 0 mm 4 mps 748 mmHg 52%
    13:00 +19°C° 0 mm 3 mps 748 mmHg 49%
    14:00 +19°C° 0 mm 3 mps 748 mmHg 46%
    15:00 +19°C° 0 mm 3 mps 748 mmHg 48%
    16:00 +19°C° 0 mm 3 mps 748 mmHg 50%
    17:00 +19°C° 0 mm 2 mps 748 mmHg 52%
    18:00 +17°C° 0 mm 2 mps 748 mmHg 58%
    19:00 +15°C° 0 mm 2 mps 747 mmHg 63%
    20:00 +14°C° 0 mm 2 mps 747 mmHg 68%
    21:00 +13°C° 0 mm 2 mps 748 mmHg 67%
    22:00 +12°C° 0 mm 2 mps 748 mmHg 66%
    23:00 +10°C° 0 mm 2 mps 748 mmHg 65%
    Mostrar más